Date String (YYYY-MM-DD hh:mm:ss) UTC,Instrument flags,Ambient pressure (hPa),Sample flow (lpm),Bypass flow (lpm),Sample temperature (°C),Ambient temperature (°C),ASC tube jacket temperature (°C),LED temperature (°C),Box temperature (°C),Sample RH (%),Span deviation,Mass concentration (μg/m³),Mass concentration (μg/m³),Mass concentration (μg/m³)
DateTimeUTC,F1_M11,P_M11,Q1_M11,Q2_M11,T1_M11,T2_M11,T3_M11,T4_M11,T5_M11,U1_M11,ZSPAN_M11,X0_M11,X2_M11,X1_M11
2022-01-22 00:00:00,,0830.6,5.02,0.00,22.2,21.6,00.0,31.2,23.9,19.7,-002.3,0007.35,0004.50,0004.20
2022-01-22 00:01:00,,0830.6,5.00,0.00,22.2,21.6,00.0,31.2,23.9,19.7,-002.8,0007.40,0004.53,0004.22
2022-01-22 00:02:00,,0830.7,4.99,0.00,22.2,21.5,00.0,31.2,23.9,19.7,-002.5,0007.42,0004.54,0004.22
2022-01-22 00:03:00,,0830.7,5.00,0.00,22.1,21.5,00.0,31.2,23.9,19.8,-002.1,0007.50,0004.58,0004.24
2022-01-22 00:04:00,,0830.7,5.01,0.00,22.1,21.5,00.0,31.2,23.9,19.8,-002.4,0007.51,0004.57,0004.24
2022-01-22 00:05:00,,0830.7,4.98,0.00,22.1,21.5,00.0,31.2,23.9,19.7,-002.7,0007.44,0004.56,0004.24
2022-01-22 00:06:00,,0830.7,5.02,0.00,22.1,21.5,00.0,31.1,23.8,19.7,-002.6,0007.48,0004.60,0004.27
2022-01-22 00:07:00,,0830.7,4.99,0.00,22.1,21.5,00.0,31.1,23.8,19.7,-002.3,0007.57,0004.66,0004.31
2022-01-22 00:08:00,,0830.7,4.99,0.00,22.1,21.5,00.0,31.1,23.8,19.7,-002.1,0007.68,0004.72,0004.35
2022-01-22 00:09:00,,0830.7,5.02,0.00,22.1,21.5,00.0,31.1,23.8,19.7,-002.2,0007.67,0004.73,0004.37
2022-01-22 00:10:00,,0830.7,4.99,0.00,22.1,21.5,00.0,31.1,23.8,19.7,-001.6,0007.62,0004.72,0004.37
2022-01-22 00:11:00,,0830.8,5.01,0.00,22.1,21.5,00.0,31.1,23.8,19.7,-001.7,0007.68,0004.75,0004.37
2022-01-22 00:12:00,,0830.8,5.00,0.00,22.0,21.5,00.0,31.1,23.8,19.7,-001.0,0007.62,0004.74,0004.37
2022-01-22 00:13:00,,0830.8,5.00,0.00,22.0,21.5,00.0,31.1,23.8,19.7,0000.0,0007.59,0004.71,0004.34
2022-01-22 00:14:00,,0830.9,4.99,0.00,22.0,21.4,00.0,31.1,23.8,19.7,-000.3,0007.54,0004.67,0004.30
2022-01-22 00:15:00,,0830.9,5.01,0.00,22.0,21.4,00.0,31.1,23.8,19.7,0000.1,0007.44,0004.61,0004.26
2022-01-22 00:16:00,,0830.9,4.99,0.00,22.0,21.4,00.0,31.1,23.8,19.7,0000.1,0007.37,0004.55,0004.21
2022-01-22 00:17:00,,0831.0,5.01,0.00,22.0,21.4,00.0,31.1,23.8,19.7,-000.5,0007.18,0004.48,0004.16
2022-01-22 00:18:00,,0830.9,4.98,0.00,22.0,21.4,00.0,31.1,23.8,19.7,-000.8,0007.01,0004.42,0004.11
2022-01-22 00:19:00,,0831.0,5.02,0.00,22.0,21.4,00.0,31.1,23.8,19.7,-001.2,0006.83,0004.34,0004.04
2022-01-22 00:20:00,,0831.0,4.98,0.00,22.0,21.4,00.0,31.0,23.7,19.7,-001.0,0007.00,0004.34,0003.98
2022-01-22 00:21:00,,0831.0,5.02,0.00,22.0,21.4,00.0,31.0,23.7,19.7,-001.2,0007.19,0004.31,0003.94
2022-01-22 00:22:00,,0830.9,5.00,0.00,22.0,21.4,00.0,31.0,23.7,19.7,-001.5,0007.10,0004.25,0003.91
2022-01-22 00:23:00,,0831.0,5.00,0.00,22.0,21.4,00.0,31.0,23.7,19.6,-001.8,0007.13,0004.22,0003.88
2022-01-22 00:24:00,,0831.0,5.00,0.00,22.0,21.5,00.0,31.0,23.7,19.6,-002.2,0007.05,0004.19,0003.86
2022-01-22 00:25:00,,0831.1,4.99,0.00,22.1,21.9,00.0,31.1,23.9,19.6,-002.5,0007.05,0004.19,0003.86
2022-01-22 00:26:00,,0831.2,5.00,0.00,22.2,22.7,00.0,31.1,24.2,19.4,-002.5,0007.09,0004.21,0003.86
2022-01-22 00:27:00,,0831.1,5.00,0.00,22.3,23.0,00.0,31.2,24.3,19.2,-002.4,0007.25,0004.25,0003.88
2022-01-22 00:28:00,,0831.1,5.00,0.00,22.4,22.9,00.0,31.2,24.4,19.1,-002.2,0007.41,0004.32,0003.93
2022-01-22 00:29:00,,0831.1,5.01,0.00,22.4,22.7,00.0,31.2,24.3,19.1,-002.1,0007.45,0004.35,0003.96
2022-01-22 00:30:00,,0831.2,4.99,0.00,22.4,22.5,00.0,31.2,24.3,19.1,-002.1,0007.56,0004.41,0004.02
2022-01-22 00:31:00,,0831.2,5.02,0.00,22.4,22.3,00.0,31.2,24.2,19.1,-002.3,0007.59,0004.43,0004.07
2022-01-22 00:32:00,,0831.1,4.99,0.00,22.4,22.2,00.0,31.2,24.2,19.1,-002.1,0007.49,0004.48,0004.15
2022-01-22 00:33:00,,0831.1,5.01,0.00,22.4,22.1,00.0,31.2,24.1,19.1,-001.4,0007.49,0004.54,0004.22
2022-01-22 00:34:00,,0831.2,4.98,0.00,22.3,22.0,00.0,31.3,24.1,19.0,-001.0,0007.42,0004.54,0004.25
2022-01-22 00:35:00,,0831.2,5.01,0.00,22.3,21.9,00.0,31.3,24.1,19.0,-000.5,0007.41,0004.54,0004.25
2022-01-22 00:36:00,,0831.2,4.98,0.00,22.3,21.9,00.0,31.3,24.1,19.0,-000.4,0007.39,0004.53,0004.25
2022-01-22 00:37:00,,0831.2,5.01,0.00,22.3,21.8,00.0,31.3,24.1,19.0,-000.7,0007.35,0004.52,0004.25
2022-01-22 00:38:00,,0831.3,4.99,0.00,22.3,21.8,00.0,31.3,24.1,18.9,-000.8,0007.19,0004.47,0004.23
2022-01-22 00:39:00,,0831.4,5.02,0.00,22.3,21.8,00.0,31.3,24.1,19.0,-001.0,0007.01,0004.41,0004.19
2022-01-22 00:40:00,,0831.4,4.98,0.00,22.3,21.8,00.0,31.3,24.1,18.9,-001.3,0006.95,0004.38,0004.17
2022-01-22 00:41:00,,0831.4,5.02,0.00,22.3,21.8,00.0,31.3,24.1,18.9,-001.0,0007.13,0004.32,0004.14
2022-01-22 00:42:00,,0831.4,4.99,0.00,22.3,21.7,00.0,31.3,24.0,18.9,-000.1,0007.15,0004.26,0004.10
2022-01-22 00:43:00,,0831.4,5.01,0.00,22.3,21.7,00.0,31.3,24.1,18.8,0000.1,0006.99,0004.19,0004.03
2022-01-22 00:44:00,,0831.4,4.99,0.00,22.3,21.7,00.0,31.3,24.0,18.8,-000.4,0006.78,0004.09,0003.93
2022-01-22 00:45:00,,0831.4,5.00,0.00,22.3,21.7,00.0,31.3,24.0,18.8,-000.8,0006.78,0004.06,0003.88
2022-01-22 00:46:00,,0831.4,5.01,0.00,22.2,21.7,00.0,31.2,24.0,18.7,-000.6,0006.69,0004.03,0003.87
2022-01-22 00:47:00,,0831.4,5.00,0.00,22.2,21.7,00.0,31.2,24.0,18.7,-000.0,0006.66,0004.00,0003.84
2022-01-22 00:48:00,,0831.4,5.00,0.00,22.2,21.7,00.0,31.2,24.0,18.6,-000.3,0006.66,0003.98,0003.81
2022-01-22 00:49:00,,0831.5,5.00,0.00,22.2,21.6,00.0,31.2,24.0,18.6,-000.2,0006.60,0003.95,0003.77
2022-01-22 00:50:00,,0831.5,5.00,0.00,22.2,21.6,00.0,31.2,24.0,18.6,0000.1,0006.49,0003.89,0003.72
2022-01-22 00:51:00,,0831.6,5.00,0.00,22.2,21.6,00.0,31.2,24.0,18.5,0000.2,0006.87,0003.82,0003.65
2022-01-22 00:52:00,,0831.6,5.00,0.00,22.2,21.6,00.0,31.2,24.0,18.4,-000.4,0006.78,0003.74,0003.58
2022-01-22 00:53:00,,0831.6,5.01,0.00,22.2,21.6,00.0,31.2,24.0,18.3,-000.7,0006.37,0003.68,0003.51
2022-01-22 00:54:00,,0831.6,4.99,0.00,22.2,21.6,00.0,31.2,24.0,18.3,-000.6,0006.27,0003.63,0003.46
2022-01-22 00:55:00,,0831.5,5.01,0.00,22.2,21.6,00.0,31.2,24.0,18.2,-001.1,0006.14,0003.59,0003.42
2022-01-22 00:56:00,,0831.6,4.99,0.00,22.2,21.6,00.0,31.2,24.0,18.2,-000.6,0006.19,0003.51,0003.38
2022-01-22 00:57:00,,0831.6,5.01,0.00,22.2,21.6,00.0,31.2,24.0,18.1,-000.6,0007.02,0003.48,0003.34
2022-01-22 00:58:00,,0831.6,4.99,0.00,22.2,21.6,00.0,31.2,24.0,18.1,-000.6,0006.92,0003.44,0003.30
2022-01-22 00:59:00,,0831.6,5.00,0.00,22.2,21.6,00.0,31.2,24.0,18.0,-000.8,0006.72,0003.39,0003.27
